Simultaneous Nadir Overpasses (SNOs) Predictions

Prediction of SNOs between METOP-A and TERRA Satellite Orbit:

Table of predicted SNOs for the next 14.0 days since TLE Epoch: 4/20/2017
Index Date (METOP-A) Time (METOP-A) Lat,Lon (METOP-A) SZA (METOP-A ) Date (TERRA) Time (TERRA) Lat,Lon (TERRA) SZA (TERRA ) Distance(km) Time Diff (sec)
1 04/21/2017 16:57:54 81.33, -26.94 72.16 04/21/2017 16:58:49 81.33, -26.93 72.18 0.68 55
2 04/21/2017 17:48:34 -81.34, 140.85 107.80 04/21/2017 17:48:15 -81.34, 141.00 107.79 2.59 19
3 04/24/2017 12:32:15 81.34, 39.76 71.28 04/24/2017 12:33:04 81.34, 39.83 71.31 1.49 49
4 04/24/2017 13:22:55 -81.34,-152.44 108.68 04/24/2017 13:22:31 -81.34,-152.61 108.71 2.86 24
5 04/27/2017 08:06:37 81.33, 106.04 70.37 04/27/2017 08:07:20 81.33, 106.08 70.40 0.71 43
6 04/27/2017 08:57:17 -81.34, -86.14 109.58 04/27/2017 08:56:46 -81.35, -85.96 109.57 3.25 31
7 04/30/2017 03:40:57 81.34, 172.70 69.55 04/30/2017 03:41:34 81.34, 172.60 69.55 1.74 37
8 04/30/2017 04:31:38 -81.34, -19.86 110.46 04/30/2017 04:31:01 -81.33, -19.81 110.47 0.91 37
9 05/02/2017 23:15:19 81.34,-121.04 68.70 05/02/2017 23:15:49 81.34,-121.00 68.72 0.69 30




NCC Satellite Simultaneous Nadir Overpasses (SNOs) Prediction Service
